| time (UTC) | temp C | wind direction | speed KPH | gust KPH | rain 1hr cm | rain 24hr cm | rain mn cm | humidity % | barometer mb |
| 20260506112750 | 18 | 180 | 12.9 | 12.9 | 0.00 | 0.00 | 0.05 | 58 | 992.6 |
| 20260506112447 | 19 | 135 | 6.4 | 6.4 | 0.00 | 0.00 | 0.05 | 62 | 992.6 |
| 20260506112147 | 18 | 225 | 6.4 | 6.4 | 0.00 | 0.00 | 0.05 | 60 | 992.6 |
| 20260506111848 | 18 | 225 | 4.8 | 6.4 | 0.00 | 0.00 | 0.05 | 58 | 992.6 |
| 20260506111548 | 18 | 292 | 3.2 | 3.2 | 0.00 | 0.00 | 0.05 | 58 | 992.9 |
| 20260506111248 | 19 | 180 | 14.5 | 14.5 | 0.00 | 0.00 | 0.05 | 62 | 992.6 |
| 20260506110947 | 19 | 202 | 3.2 | 3.2 | 0.00 | 0.00 | 0.05 | 63 | 992.9 |
| 20260506110647 | 18 | 225 | 6.4 | 6.4 | 0.00 | 0.00 | 0.05 | 60 | 992.9 |
| 20260506110348 | 18 | 337 | 8.0 | 8.0 | 0.00 | 0.00 | 0.05 | 61 | 992.9 |
| 20260506110047 | 18 | 180 | 3.2 | 3.2 | 0.00 | 0.00 | 0.05 | 62 | 992.9 |
| 20260506105747 | 18 | 225 | 8.0 | 8.0 | 0.00 | 0.00 | 0.05 | 61 | 992.9 |
| 20260506105147 | 18 | 337 | 4.8 | 4.8 | 0.00 | 0.00 | 0.05 | 63 | 992.9 |
| 20260506104847 | 18 | 225 | 4.8 | 4.8 | 0.00 | 0.00 | 0.05 | 64 | 992.6 |
| 20260506104547 | 18 | 247 | 9.7 | 9.7 | 0.00 | 0.00 | 0.05 | 64 | 992.9 |
| 20260506104247 | 18 | 225 | 14.5 | 14.5 | 0.00 | 0.00 | 0.05 | 64 | 992.9 |
| 20260506103950 | 17 | 337 | 8.0 | 8.0 | 0.00 | 0.00 | 0.05 | 64 | 992.9 |
| 20260506103648 | 17 | 247 | 8.0 | 8.0 | 0.00 | 0.00 | 0.05 | 66 | 992.9 |
| 20260506103348 | 17 | 225 | 8.0 | 8.0 | 0.00 | 0.00 | 0.05 | 64 | 992.9 |
| 20260506103046 | 17 | 202 | 11.3 | 11.3 | 0.00 | 0.00 | 0.05 | 63 | 992.9 |
| 20260506102748 | 17 | 337 | 9.7 | 9.7 | 0.00 | 0.00 | 0.05 | 65 | 992.9 |
| 20260506102447 | 17 | 180 | 11.3 | 11.3 | 0.00 | 0.00 | 0.05 | 66 | 992.9 |
| 20260506102148 | 17 | 225 | 6.4 | 6.4 | 0.00 | 0.00 | 0.05 | 66 | 992.9 |
| 20260506101847 | 17 | 225 | 9.7 | 9.7 | 0.00 | 0.00 | 0.05 | 69 | 992.9 |
| 20260506101548 | 17 | 180 | 11.3 | 11.3 | 0.00 | 0.00 | 0.05 | 67 | 992.9 |
| 20260506101247 | 16 | 225 | 12.9 | 12.9 | 0.00 | 0.00 | 0.05 | 68 | 992.9 |
| 20260506100948 | 17 | 180 | 4.8 | 4.8 | 0.00 | 0.00 | 0.05 | 69 | 992.9 |
| 20260506100647 | 17 | 225 | 8.0 | 8.0 | 0.00 | 0.00 | 0.05 | 69 | 992.9 |
| 20260506100350 | 17 | 337 | 9.7 | 9.7 | 0.00 | 0.00 | 0.05 | 68 | 992.9 |
| 20260506100047 | 16 | 180 | 14.5 | 14.5 | 0.00 | 0.00 | 0.05 | 69 | 992.9 |
| 20260506095747 | 16 | 337 | 6.4 | 6.4 | 0.00 | 0.00 | 0.05 | 70 | 992.9 |
| 20260506095447 | 16 | 247 | 3.2 | 3.2 | 0.00 | 0.00 | 0.05 | 70 | 992.9 |
| 20260506095147 | 16 | 270 | 6.4 | 6.4 | 0.00 | 0.00 | 0.05 | 69 | 992.9 |
| 20260506094848 | 16 | 337 | 3.2 | 3.2 | 0.00 | 0.00 | 0.05 | 69 | 992.9 |
| 20260506094247 | 16 | 337 | 6.4 | 6.4 | 0.00 | 0.00 | 0.05 | 70 | 992.9 |
| 20260506093947 | 16 | 202 | 4.8 | 4.8 | 0.00 | 0.00 | 0.05 | 72 | 992.9 |
| 20260506093647 | 16 | 180 | 4.8 | 4.8 | 0.00 | 0.00 | 0.05 | 71 | 992.9 |
| 20260506093347 | 16 | 225 | 3.2 | 3.2 | 0.00 | 0.00 | 0.05 | 71 | 992.9 |
| 20260506093047 | 15 | 202 | 4.8 | 4.8 | 0.00 | 0.00 | 0.05 | 70 | 992.9 |
| 20260506092750 | 16 | 225 | 3.2 | 3.2 | 0.00 | 0.00 | 0.05 | 72 | 992.9 |
| 20260506092447 | 16 | 270 | 4.8 | 4.8 | 0.00 | 0.00 | 0.05 | 71 | 992.9 |
| 20260506092148 | 16 | 270 | 1.6 | 1.6 | 0.00 | 0.00 | 0.05 | 72 | 992.9 |
| 20260506091847 | 16 | 180 | 3.2 | 3.2 | 0.00 | 0.00 | 0.05 | 72 | 993.1 |
| 20260506091548 | 16 | 337 | 11.3 | 11.3 | 0.00 | 0.00 | 0.05 | 72 | 993.1 |
| 20260506091248 | 16 | 225 | 8.0 | 9.7 | 0.00 | 0.00 | 0.05 | 73 | 993.1 |
| 20260506090948 | 16 | 337 | 4.8 | 4.8 | 0.00 | 0.00 | 0.05 | 73 | 993.1 |
| 20260506090647 | 16 | 270 | 12.9 | 12.9 | 0.00 | 0.00 | 0.05 | 73 | 992.9 |
| 20260506090348 | 16 | 225 | 6.4 | 6.4 | 0.00 | 0.00 | 0.05 | 75 | 992.9 |
| 20260506090047 | 16 | 202 | 12.9 | 12.9 | 0.00 | 0.00 | 0.05 | 77 | 992.9 |
| 20260506085748 | 15 | 225 | 9.7 | 9.7 | 0.00 | 0.00 | 0.05 | 75 | 992.9 |
| 20260506085148 | 15 | 247 | 6.4 | 6.4 | 0.00 | 0.00 | 0.05 | 75 | 992.9 |
| 20260506084847 | 15 | 225 | 6.4 | 6.4 | 0.00 | 0.00 | 0.05 | 75 | 992.9 |
| 20260506084547 | 16 | 270 | 6.4 | 6.4 | 0.00 | 0.00 | 0.05 | 75 | 992.6 |
| 20260506084248 | 16 | 315 | 4.8 | 6.4 | 0.00 | 0.00 | 0.05 | 75 | 992.9 |
| 20260506083947 | 15 | 247 | 6.4 | 6.4 | 0.00 | 0.00 | 0.05 | 75 | 992.9 |
| 20260506083347 | 15 | 337 | 11.3 | 11.3 | 0.00 | 0.00 | 0.05 | 75 | 992.6 |
| 20260506083047 | 16 | 270 | 12.9 | 12.9 | 0.00 | 0.00 | 0.05 | 79 | 992.6 |
| 20260506082747 | 16 | 270 | 6.4 | 6.4 | 0.00 | 0.00 | 0.05 | 80 | 992.6 |
| 20260506082448 | 15 | 225 | 8.0 | 8.0 | 0.00 | 0.00 | 0.05 | 80 | 992.6 |
| 20260506082148 | 15 | 225 | 9.7 | 9.7 | 0.00 | 0.00 | 0.05 | 81 | 992.6 |
| 20260506081850 | 15 | 247 | 6.4 | 6.4 | 0.00 | 0.00 | 0.05 | 80 | 992.6 |
| 20260506081547 | 15 | 270 | 12.9 | 12.9 | 0.00 | 0.00 | 0.05 | 81 | 992.9 |
| 20260506081247 | 15 | 225 | 4.8 | 4.8 | 0.00 | 0.00 | 0.05 | 82 | 992.9 |
| 20260506080948 | 14 | 337 | 6.4 | 6.4 | 0.00 | 0.00 | 0.05 | 81 | 992.6 |
| 20260506080647 | 14 | 337 | 9.7 | 9.7 | 0.00 | 0.00 | 0.05 | 81 | 992.6 |
| 20260506080350 | 14 | 225 | 9.7 | 9.7 | 0.00 | 0.00 | 0.05 | 81 | 992.6 |
| 20260506073347 | 15 | 270 | 1.6 | 1.6 | 0.00 | 0.00 | 0.05 | 85 | 992.4 |
| 20260506073048 | 14 | 292 | 1.6 | 1.6 | 0.00 | 0.00 | 0.05 | 85 | 992.6 |
| 20260506072446 | 13 | 225 | 11.3 | 11.3 | 0.00 | 0.00 | 0.05 | 86 | 992.4 |
| 20260506072147 | 13 | 225 | 6.4 | 6.4 | 0.00 | 0.00 | 0.05 | 86 | 992.4 |
| 20260506071848 | 13 | 180 | 6.4 | 6.4 | 0.00 | 0.00 | 0.05 | 86 | 992.4 |
| 20260506071548 | 13 | 337 | 3.2 | 3.2 | 0.00 | 0.00 | 0.05 | 85 | 992.4 |
| 20260506071247 | 13 | 337 | 4.8 | 4.8 | 0.00 | 0.00 | 0.05 | 86 | 992.4 |
| 20260506070948 | 13 | 292 | 4.8 | 4.8 | 0.00 | 0.00 | 0.05 | 86 | 992.4 |
| 20260506070647 | 13 | 225 | 1.6 | 1.6 | 0.00 | 0.00 | 0.05 | 86 | 992.4 |
| 20260506070347 | 13 | 180 | 3.2 | 3.2 | 0.00 | 0.00 | 0.05 | 87 | 992.4 |
| 20260506062448 | 12 | 202 | 1.6 | 1.6 | 0.00 | 0.00 | 0.05 | 87 | 992.6 |
| 20260506062148 | 12 | 270 | 1.6 | 1.6 | 0.00 | 0.00 | 0.05 | 87 | 992.6 |
| 20260506061847 | 12 | 202 | 1.6 | 1.6 | 0.00 | 0.00 | 0.05 | 87 | 992.6 |
| 20260506061548 | 12 | 180 | 0.0 | 0.0 | 0.00 | 0.00 | 0.05 | 86 | 992.6 |
| 20260506061247 | 12 | 225 | 3.2 | 3.2 | 0.00 | 0.00 | 0.05 | 87 | 992.6 |
| 20260506060948 | 12 | 270 | 6.4 | 6.4 | 0.00 | 0.00 | 0.05 | 86 | 992.6 |
| 20260506060648 | 12 | 225 | 6.4 | 6.4 | 0.00 | 0.00 | 0.05 | 86 | 992.6 |
| 20260506060350 | 12 | 270 | 1.6 | 1.6 | 0.00 | 0.00 | 0.05 | 87 | 992.6 |
| 20260506051247 | 11 | 225 | 6.4 | 6.4 | 0.00 | 0.00 | 0.05 | 88 | 992.6 |
| 20260506050950 | 11 | 180 | 3.2 | 3.2 | 0.00 | 0.00 | 0.05 | 87 | 992.9 |
| 20260506050648 | 11 | 202 | 12.9 | 12.9 | 0.00 | 0.00 | 0.05 | 88 | 992.6 |
| 20260506050347 | 11 | 337 | 4.8 | 4.8 | 0.00 | 0.00 | 0.05 | 87 | 992.6 |
| 20260506044848 | 11 | 202 | 1.6 | 1.6 | 0.00 | 0.00 | 0.05 | 88 | 992.9 |
| 20260506044548 | 11 | 270 | 4.8 | 4.8 | 0.00 | 0.00 | 0.05 | 88 | 992.9 |
| 20260506043648 | 11 | 225 | 3.2 | 3.2 | 0.00 | 0.00 | 0.05 | 88 | 992.4 |
| 20260506043348 | 11 | 315 | 1.6 | 1.6 | 0.00 | 0.00 | 0.05 | 88 | 992.4 |
| 20260506043048 | 11 | 337 | 1.6 | 1.6 | 0.00 | 0.00 | 0.05 | 88 | 992.4 |
| 20260506042748 | 11 | 337 | 1.6 | 1.6 | 0.00 | 0.00 | 0.05 | 88 | 992.4 |
| 20260506042450 | 11 | 270 | 1.6 | 1.6 | 0.00 | 0.00 | 0.05 | 88 | 992.4 |
| 20260506042147 | 11 | 270 | 3.2 | 3.2 | 0.00 | 0.00 | 0.05 | 88 | 992.4 |
| 20260506041847 | 11 | 225 | 3.2 | 3.2 | 0.00 | 0.00 | 0.05 | 88 | 992.4 |
| 20260506041546 | 11 | 270 | 4.8 | 4.8 | 0.00 | 0.00 | 0.05 | 88 | 992.4 |
| 20260506041248 | 11 | 247 | 3.2 | 3.2 | 0.00 | 0.00 | 0.05 | 88 | 992.4 |
| 20260506040947 | 11 | 337 | 6.4 | 6.4 | 0.00 | 0.00 | 0.05 | 88 | 992.4 |
| 20260506040650 | 11 | 337 | 8.0 | 8.0 | 0.00 | 0.00 | 0.05 | 88 | 992.4 |
| 20260506040347 | 11 | 225 | 6.4 | 6.4 | 0.00 | 0.00 | 0.05 | 88 | 992.4 |
| 20260506040048 | 11 | 225 | 14.5 | 14.5 | 0.00 | 0.00 | 0.05 | 88 | 992.4 |
| 20260506035748 | 11 | 225 | 1.6 | 1.6 | 0.00 | 0.00 | 0.05 | 88 | 992.4 |
| 20260506035448 | 11 | 225 | 4.8 | 6.4 | 0.00 | 0.00 | 0.05 | 89 | 992.4 |
| 20260506035148 | 11 | 225 | 8.0 | 9.7 | 0.00 | 0.00 | 0.05 | 88 | 992.4 |
| 20260506034850 | 11 | 202 | 3.2 | 3.2 | 0.00 | 0.00 | 0.05 | 88 | 992.4 |
| 20260506034546 | 11 | 225 | 3.2 | 3.2 | 0.00 | 0.00 | 0.05 | 88 | 992.1 |
| 20260506034248 | 11 | 225 | 6.4 | 6.4 | 0.00 | 0.00 | 0.05 | 88 | 992.1 |
| 20260506033947 | 11 | 337 | 1.6 | 1.6 | 0.00 | 0.00 | 0.05 | 88 | 992.1 |
| 20260506033647 | 11 | 225 | 6.4 | 6.4 | 0.00 | 0.00 | 0.05 | 88 | 992.4 |
| 20260506033347 | 11 | 337 | 4.8 | 4.8 | 0.00 | 0.00 | 0.05 | 88 | 992.1 |
| 20260506033048 | 11 | 180 | 4.8 | 4.8 | 0.00 | 0.00 | 0.05 | 88 | 992.1 |
| 20260506032747 | 11 | 270 | 6.4 | 6.4 | 0.00 | 0.00 | 0.05 | 89 | 992.1 |
| 20260506032447 | 11 | 225 | 1.6 | 1.6 | 0.00 | 0.00 | 0.05 | 88 | 992.4 |
| 20260506032147 | 11 | 225 | 4.8 | 4.8 | 0.00 | 0.00 | 0.05 | 89 | 992.1 |
| 20260506031847 | 11 | 337 | 6.4 | 6.4 | 0.00 | 0.00 | 0.05 | 88 | 992.1 |
| 20260506031548 | 11 | 225 | 11.3 | 11.3 | 0.00 | 0.00 | 0.05 | 88 | 992.1 |
| 20260506030946 | 11 | 202 | 3.2 | 3.2 | 0.00 | 0.00 | 0.05 | 89 | 992.1 |
| 20260506030647 | 11 | 247 | 6.4 | 6.4 | 0.00 | 0.00 | 0.05 | 88 | 992.1 |
| 20260506030348 | 11 | 225 | 6.4 | 6.4 | 0.00 | 0.00 | 0.05 | 88 | 992.4 |
| 20260506030048 | 11 | 225 | 4.8 | 4.8 | 0.00 | 0.00 | 0.05 | 88 | 992.4 |
| 20260506025447 | 11 | 225 | 8.0 | 8.0 | 0.00 | 0.00 | 0.05 | 88 | 992.4 |
| 20260506025147 | 11 | 180 | 3.2 | 3.2 | 0.00 | 0.00 | 0.05 | 88 | 992.4 |
| 20260506024848 | 11 | 225 | 1.6 | 3.2 | 0.00 | 0.00 | 0.05 | 88 | 992.4 |
| 20260506024547 | 11 | 225 | 4.8 | 4.8 | 0.00 | 0.00 | 0.05 | 88 | 992.4 |
| 20260506024248 | 11 | 270 | 4.8 | 4.8 | 0.00 | 0.00 | 0.05 | 88 | 992.4 |
| 20260506023947 | 11 | 225 | 4.8 | 4.8 | 0.00 | 0.00 | 0.05 | 88 | 992.4 |
| 20260506023648 | 11 | 180 | 1.6 | 1.6 | 0.00 | 0.00 | 0.05 | 88 | 992.4 |
| 20260506023348 | 11 | 225 | 3.2 | 3.2 | 0.00 | 0.00 | 0.05 | 88 | 992.4 |
| 20260506023048 | 11 | 270 | 4.8 | 4.8 | 0.00 | 0.00 | 0.05 | 88 | 992.4 |
| 20260506022747 | 11 | 337 | 4.8 | 4.8 | 0.00 | 0.00 | 0.05 | 88 | 992.4 |
| 20260506022148 | 11 | 225 | 4.8 | 4.8 | 0.00 | 0.00 | 0.00 | 88 | 992.4 |
| 20260506021847 | 11 | 225 | 6.4 | 6.4 | 0.00 | 0.00 | 0.00 | 88 | 992.4 |
| 20260506021548 | 11 | 180 | 1.6 | 1.6 | 0.00 | 0.00 | 0.00 | 88 | 992.4 |
| 20260506021247 | 11 | 337 | 1.6 | 3.2 | 0.00 | 0.00 | 0.00 | 88 | 992.4 |
| 20260506020947 | 11 | 337 | 3.2 | 3.2 | 0.00 | 0.00 | 0.00 | 88 | 992.4 |
| 20260506020650 | 11 | 225 | 1.6 | 1.6 | 0.00 | 0.00 | 0.00 | 88 | 992.4 |
| 20260506020348 | 11 | 225 | 3.2 | 3.2 | 0.00 | 0.00 | 0.00 | 88 | 992.4 |
| 20260506020047 | 11 | 225 | 1.6 | 3.2 | 0.00 | 0.00 | 0.00 | 88 | 992.4 |
| 20260506015748 | 11 | 270 | 0.0 | 0.0 | 0.00 | 0.00 | 0.00 | 88 | 992.4 |
| 20260506015448 | 11 | 225 | 1.6 | 1.6 | 0.00 | 0.00 | 0.00 | 88 | 992.4 |
| 20260506015147 | 11 | 337 | 3.2 | 3.2 | 0.00 | 0.00 | 0.00 | 88 | 992.4 |
| 20260506014847 | 11 | 180 | 3.2 | 3.2 | 0.00 | 0.00 | 0.00 | 88 | 992.6 |
| 20260506014548 | 11 | 225 | 1.6 | 1.6 | 0.00 | 0.00 | 0.00 | 88 | 992.6 |
| 20260506014248 | 11 | 337 | 4.8 | 4.8 | 0.00 | 0.00 | 0.00 | 88 | 992.6 |
| 20260506013947 | 11 | 270 | 1.6 | 1.6 | 0.00 | 0.00 | 0.00 | 88 | 992.6 |
| 20260506013647 | 11 | 337 | 11.3 | 11.3 | 0.00 | 0.00 | 0.00 | 88 | 992.9 |
| 20260506013350 | 11 | 202 | 8.0 | 8.0 | 0.00 | 0.00 | 0.00 | 87 | 992.9 |
| 20260506013048 | 11 | 225 | 1.6 | 3.2 | 0.00 | 0.00 | 0.00 | 88 | 992.6 |
| 20260506012747 | 11 | 202 | 4.8 | 4.8 | 0.00 | 0.00 | 0.00 | 88 | 992.6 |
| 20260506012446 | 11 | 180 | 6.4 | 6.4 | 0.00 | 0.00 | 0.00 | 88 | 992.9 |
| 20260506012148 | 11 | 337 | 9.7 | 9.7 | 0.00 | 0.00 | 0.00 | 88 | 992.9 |
| 20260506011847 | 11 | 225 | 4.8 | 4.8 | 0.00 | 0.00 | 0.00 | 88 | 992.9 |
| 20260506011246 | 11 | 180 | 3.2 | 3.2 | 0.00 | 0.00 | 0.00 | 87 | 992.9 |
| 20260506010947 | 11 | 202 | 6.4 | 6.4 | 0.00 | 0.00 | 0.00 | 88 | 992.9 |
| 20260506010647 | 11 | 225 | 4.8 | 4.8 | 0.00 | 0.00 | 0.00 | 88 | 992.9 |
| 20260506010347 | 11 | 225 | 4.8 | 4.8 | 0.00 | 0.00 | 0.00 | 88 | 992.9 |
| 20260506010047 | 11 | 225 | 6.4 | 6.4 | 0.00 | 0.00 | 0.00 | 88 | 992.9 |
| 20260506005750 | 11 | 337 | 3.2 | 3.2 | 0.00 | 0.00 | 0.00 | 88 | 992.9 |
| 20260506005448 | 11 | 202 | 4.8 | 4.8 | 0.00 | 0.00 | 0.00 | 88 | 992.9 |
| 20260506005147 | 11 | 202 | 3.2 | 3.2 | 0.00 | 0.00 | 0.00 | 88 | 992.9 |
| 20260506004847 | 11 | 202 | 4.8 | 4.8 | 0.00 | 0.00 | 0.00 | 88 | 992.9 |
| 20260506004547 | 11 | 337 | 3.2 | 3.2 | 0.00 | 0.00 | 0.00 | 87 | 992.9 |
| 20260506004247 | 11 | 225 | 6.4 | 6.4 | 0.00 | 0.00 | 0.00 | 87 | 992.9 |
| 20260506003948 | 11 | 225 | 0.0 | 0.0 | 0.00 | 0.00 | 0.00 | 87 | 992.9 |
| 20260506003648 | 11 | 225 | 3.2 | 3.2 | 0.00 | 0.00 | 0.00 | 87 | 992.9 |
| 20260506003348 | 11 | 225 | 4.8 | 4.8 | 0.00 | 0.00 | 0.00 | 87 | 992.9 |
| 20260506003048 | 11 | 337 | 1.6 | 1.6 | 0.00 | 0.00 | 0.00 | 87 | 993.1 |
| 20260506002748 | 11 | 225 | 3.2 | 3.2 | 0.00 | 0.00 | 0.00 | 87 | 993.1 |
| 20260506002147 | 11 | 225 | 3.2 | 3.2 | 0.00 | 0.00 | 0.00 | 87 | 993.1 |
| 20260506001847 | 11 | 247 | 4.8 | 4.8 | 0.00 | 0.00 | 0.00 | 87 | 993.1 |
| 20260506001547 | 11 | 225 | 4.8 | 4.8 | 0.00 | 0.00 | 0.00 | 87 | 993.4 |
| 20260506001247 | 11 | 180 | 3.2 | 3.2 | 0.00 | 0.00 | 0.00 | 87 | 993.4 |
| 20260506000947 | 11 | 180 | 1.6 | 1.6 | 0.00 | 0.00 | 0.00 | 87 | 993.4 |
| 20260506000650 | 11 | 180 | 1.6 | 3.2 | 0.00 | 0.00 | 0.00 | 87 | 993.1 |
| 20260506000347 | 11 | 225 | 3.2 | 3.2 | 0.00 | 0.00 | 0.00 | 87 | 993.4 |
| 20260506000047 | 11 | 225 | 3.2 | 3.2 | 0.00 | 0.00 | 0.00 | 86 | 993.1 |
| 20260505235747 | 11 | 202 | 3.2 | 3.2 | 0.00 | 0.00 | 0.00 | 86 | 993.4 |
| 20260505235448 | 11 | 180 | 3.2 | 3.2 | 0.00 | 0.00 | 0.00 | 87 | 993.4 |
| 20260505235147 | 11 | 202 | 3.2 | 3.2 | 0.00 | 0.00 | 0.00 | 86 | 993.4 |
| 20260505234848 | 11 | 337 | 3.2 | 3.2 | 0.00 | 0.00 | 0.00 | 87 | 993.4 |
| 20260505234548 | 11 | 202 | 4.8 | 4.8 | 0.00 | 0.00 | 0.00 | 87 | 993.4 |
| 20260505234247 | 11 | 202 | 4.8 | 4.8 | 0.00 | 0.00 | 0.00 | 86 | 993.4 |
| 20260505233948 | 11 | 337 | 3.2 | 3.2 | 0.00 | 0.00 | 0.00 | 86 | 993.4 |
| 20260505233647 | 11 | 180 | 1.6 | 1.6 | 0.00 | 0.00 | 0.00 | 86 | 993.4 |
| 20260505233350 | 11 | 180 | 1.6 | 3.2 | 0.00 | 0.00 | 0.00 | 86 | 993.4 |
| 20260505233048 | 11 | 180 | 1.6 | 1.6 | 0.00 | 0.00 | 0.00 | 86 | 993.4 |
| 20260505232748 | 11 | 180 | 4.8 | 4.8 | 0.00 | 0.00 | 0.00 | 86 | 993.4 |
| 20260505232448 | 11 | 180 | 6.4 | 6.4 | 0.00 | 0.00 | 0.00 | 86 | 993.4 |
| 20260505232147 | 11 | 337 | 3.2 | 3.2 | 0.00 | 0.00 | 0.00 | 86 | 993.4 |
| 20260505231848 | 11 | 225 | 8.0 | 8.0 | 0.00 | 0.00 | 0.00 | 85 | 993.4 |
| 20260505231548 | 11 | 180 | 3.2 | 3.2 | 0.00 | 0.00 | 0.00 | 85 | 993.4 |
| 20260505231248 | 11 | 202 | 4.8 | 4.8 | 0.00 | 0.00 | 0.00 | 85 | 993.4 |
| 20260505230947 | 11 | 202 | 6.4 | 6.4 | 0.00 | 0.00 | 0.00 | 85 | 993.4 |
| 20260505230647 | 11 | 225 | 4.8 | 6.4 | 0.00 | 0.00 | 0.00 | 85 | 993.1 |
| 20260505230048 | 11 | 225 | 0.0 | 0.0 | 0.00 | 0.00 | 0.00 | 85 | 992.9 |
| 20260505225748 | 11 | 225 | 0.0 | 0.0 | 0.00 | 0.00 | 0.00 | 85 | 992.9 |
| 20260505225448 | 11 | 247 | 3.2 | 3.2 | 0.00 | 0.00 | 0.00 | 85 | 992.9 |
| 20260505225147 | 11 | 247 | 1.6 | 1.6 | 0.00 | 0.00 | 0.00 | 85 | 992.9 |
| 20260505224848 | 11 | 225 | 3.2 | 3.2 | 0.00 | 0.00 | 0.00 | 86 | 992.9 |
| 20260505224247 | 11 | 247 | 1.6 | 1.6 | 0.00 | 0.00 | 0.00 | 85 | 993.1 |
| 20260505223948 | 11 | 337 | 6.4 | 6.4 | 0.00 | 0.00 | 0.00 | 85 | 992.9 |
| 20260505223647 | 11 | 225 | 3.2 | 3.2 | 0.00 | 0.00 | 0.00 | 85 | 992.9 |
| 20260505223347 | 11 | 202 | 1.6 | 1.6 | 0.00 | 0.00 | 0.00 | 85 | 993.1 |
| 20260505223046 | 11 | 225 | 1.6 | 1.6 | 0.00 | 0.00 | 0.00 | 85 | 993.1 |
| 20260505222448 | 11 | 225 | 1.6 | 1.6 | 0.00 | 0.00 | 0.00 | 85 | 992.9 |
| 20260505222147 | 11 | 225 | 1.6 | 1.6 | 0.00 | 0.00 | 0.00 | 85 | 992.9 |
| 20260505221847 | 11 | 270 | 3.2 | 3.2 | 0.00 | 0.00 | 0.00 | 84 | 993.1 |
| 20260505221547 | 11 | 270 | 1.6 | 1.6 | 0.00 | 0.00 | 0.00 | 85 | 993.4 |
| 20260505221247 | 11 | 225 | 3.2 | 3.2 | 0.00 | 0.00 | 0.00 | 85 | 993.4 |
| 20260505220948 | 11 | 225 | 11.3 | 11.3 | 0.00 | 0.00 | 0.00 | 84 | 993.4 |
| 20260505220647 | 11 | 270 | 4.8 | 4.8 | 0.00 | 0.00 | 0.00 | 85 | 993.1 |
| 20260505220348 | 11 | 337 | 6.4 | 6.4 | 0.00 | 0.00 | 0.00 | 85 | 993.1 |
| 20260505220047 | 12 | 337 | 8.0 | 8.0 | 0.00 | 0.00 | 0.00 | 84 | 993.4 |
| 20260505215748 | 12 | 225 | 3.2 | 3.2 | 0.00 | 0.00 | 1.88 | 84 | 993.4 |
| 20260505215450 | 12 | 225 | 4.8 | 4.8 | 0.00 | 0.00 | 1.88 | 85 | 993.4 |
| 20260505215148 | 12 | 180 | 3.2 | 3.2 | 0.00 | 0.00 | 1.88 | 84 | 993.4 |
| 20260505214848 | 12 | 225 | 0.0 | 0.0 | 0.00 | 0.00 | 1.88 | 84 | 993.4 |
| 20260505214547 | 12 | 202 | 1.6 | 3.2 | 0.00 | 0.00 | 1.88 | 84 | 993.4 |
| 20260505214247 | 12 | 180 | 3.2 | 3.2 | 0.00 | 0.00 | 1.88 | 84 | 993.4 |
| 20260505213948 | 12 | 225 | 3.2 | 3.2 | 0.00 | 0.00 | 1.88 | 83 | 993.4 |
| 20260505213650 | 12 | 202 | 1.6 | 1.6 | 0.00 | 0.00 | 1.88 | 83 | 993.4 |
| 20260505213350 | 12 | 337 | 1.6 | 1.6 | 0.00 | 0.00 | 1.88 | 83 | 993.4 |
| 20260505213047 | 12 | 225 | 1.6 | 1.6 | 0.00 | 0.00 | 1.88 | 83 | 993.4 |
| 20260505212747 | 11 | 180 | 1.6 | 1.6 | 0.00 | 0.00 | 1.88 | 82 | 993.4 |
| 20260505212446 | 12 | 202 | 1.6 | 1.6 | 0.00 | 0.00 | 1.88 | 82 | 993.4 |
| 20260505212147 | 12 | 0 | 0.0 | 0.0 | 0.00 | 0.00 | 1.88 | 83 | 993.4 |
| 20260505211849 | 12 | 0 | 0.0 | 0.0 | 0.00 | 0.00 | 1.88 | 83 | 993.4 |
| 20260505211547 | 12 | 0 | 0.0 | 0.0 | 0.00 | 0.00 | 1.88 | 82 | 993.4 |
| 20260505211248 | 12 | 0 | 0.0 | 0.0 | 0.00 | 0.00 | 1.88 | 82 | 993.4 |
| 20260505210947 | 12 | 315 | 0.0 | 0.0 | 0.00 | 0.00 | 1.88 | 82 | 993.4 |
| 20260505210648 | 12 | 270 | 0.0 | 0.0 | 0.00 | 0.00 | 1.88 | 82 | 993.4 |
| 20260505210350 | 12 | 270 | 0.0 | 0.0 | 0.00 | 0.00 | 1.88 | 82 | 993.6 |
| 20260505210048 | 12 | 270 | 1.6 | 1.6 | 0.00 | 0.00 | 1.88 | 82 | 993.6 |
| 20260505205748 | 12 | 315 | 0.0 | 0.0 | 0.00 | 0.00 | 1.88 | 83 | 993.4 |
| 20260505205448 | 12 | 225 | 0.0 | 0.0 | 0.00 | 0.00 | 1.88 | 83 | 993.6 |
| 20260505205147 | 12 | 225 | 3.2 | 3.2 | 0.00 | 0.00 | 1.88 | 83 | 993.6 |
| 20260505204848 | 12 | 225 | 0.0 | 0.0 | 0.00 | 0.00 | 1.88 | 82 | 993.6 |
| 20260505204550 | 12 | 180 | 0.0 | 0.0 | 0.00 | 0.00 | 1.88 | 82 | 993.9 |
| 20260505204248 | 11 | 180 | 1.6 | 1.6 | 0.00 | 0.00 | 1.88 | 82 | 993.6 |
| 20260505203947 | 11 | 180 | 3.2 | 3.2 | 0.00 | 0.00 | 1.88 | 82 | 993.6 |
| 20260505203647 | 12 | 202 | 1.6 | 1.6 | 0.00 | 0.00 | 1.88 | 81 | 993.6 |
| 20260505203348 | 12 | 225 | 0.0 | 0.0 | 0.00 | 0.00 | 1.88 | 81 | 993.6 |
| 20260505203048 | 12 | 202 | 0.0 | 0.0 | 0.00 | 0.00 | 1.88 | 81 | 993.6 |
| 20260505202750 | 12 | 270 | 1.6 | 1.6 | 0.00 | 0.00 | 1.88 | 82 | 993.6 |
| 20260505202448 | 12 | 225 | 1.6 | 1.6 | 0.00 | 0.00 | 1.88 | 81 | 993.6 |
| 20260505202148 | 12 | 225 | 1.6 | 1.6 | 0.00 | 0.00 | 1.88 | 81 | 993.4 |
| 20260505201847 | 12 | 337 | 1.6 | 1.6 | 0.00 | 0.00 | 1.88 | 81 | 993.6 |
| 20260505201547 | 12 | 225 | 1.6 | 1.6 | 0.00 | 0.00 | 1.88 | 82 | 993.4 |
| 20260505201248 | 12 | 337 | 0.0 | 0.0 | 0.00 | 0.00 | 1.88 | 82 | 993.4 |
| 20260505200947 | 12 | 270 | 0.0 | 0.0 | 0.00 | 0.00 | 1.88 | 82 | 993.4 |
| 20260505200648 | 12 | 225 | 0.0 | 0.0 | 0.00 | 0.00 | 1.88 | 81 | 993.4 |
| 20260505200348 | 12 | 337 | 3.2 | 3.2 | 0.00 | 0.00 | 1.88 | 82 | 993.4 |
| 20260505200048 | 12 | 225 | 1.6 | 1.6 | 0.00 | 0.00 | 1.88 | 81 | 993.4 |
| 20260505195747 | 12 | 270 | 1.6 | 1.6 | 0.00 | 0.00 | 1.88 | 81 | 993.4 |
| 20260505195450 | 12 | 270 | 1.6 | 1.6 | 0.00 | 0.00 | 1.88 | 81 | 993.4 |
| 20260505195148 | 12 | 270 | 1.6 | 1.6 | 0.00 | 0.00 | 1.88 | 81 | 993.4 |
| 20260505194847 | 12 | 202 | 3.2 | 3.2 | 0.00 | 0.00 | 1.88 | 81 | 993.4 |
| 20260505194547 | 12 | 270 | 3.2 | 3.2 | 0.00 | 0.00 | 1.88 | 80 | 993.4 |
| 20260505194247 | 12 | 202 | 3.2 | 3.2 | 0.00 | 0.00 | 1.88 | 80 | 993.4 |
| 20260505193947 | 12 | 225 | 3.2 | 3.2 | 0.00 | 0.00 | 1.88 | 81 | 993.4 |
| 20260505193647 | 12 | 337 | 4.8 | 6.4 | 0.00 | 0.00 | 1.88 | 81 | 993.4 |
| 20260505193350 | 11 | 225 | 3.2 | 3.2 | 0.00 | 0.00 | 1.88 | 81 | 993.1 |
| 20260505193048 | 12 | 225 | 3.2 | 3.2 | 0.00 | 0.00 | 1.88 | 81 | 993.4 |
| 20260505192747 | 12 | 225 | 6.4 | 6.4 | 0.00 | 0.00 | 1.88 | 80 | 993.4 |
| 20260505192448 | 12 | 202 | 6.4 | 6.4 | 0.00 | 0.00 | 1.88 | 80 | 993.1 |
| 20260505192150 | 12 | 337 | 3.2 | 3.2 | 0.00 | 0.00 | 1.88 | 79 | 992.6 |
| 20260505191848 | 12 | 0 | 8.0 | 8.0 | 0.00 | 0.00 | 1.83 | 79 | 992.6 |
| 20260505191547 | 12 | 337 | 8.0 | 8.0 | 0.00 | 0.00 | 1.78 | 79 | 992.6 |
| 20260505191251 | 12 | 45 | 6.4 | 6.4 | 0.00 | 0.00 | 1.78 | 79 | 992.9 |
| 20260505190947 | 12 | 22 | 4.8 | 4.8 | 0.00 | 0.00 | 1.68 | 79 | 992.9 |
| 20260505190647 | 12 | 0 | 1.6 | 3.2 | 0.00 | 0.00 | 1.63 | 79 | 993.1 |
| 20260505190347 | 12 | 0 | 0.0 | 0.0 | 0.00 | 0.00 | 1.57 | 80 | 993.4 |
| 20260505190048 | 12 | 0 | 1.6 | 1.6 | 0.00 | 0.00 | 1.50 | 80 | 993.4 |
| 20260505185750 | 12 | 0 | 0.0 | 0.0 | 0.00 | 0.00 | 1.50 | 80 | 993.4 |
| 20260505185448 | 12 | 0 | 3.2 | 3.2 | 0.00 | 0.00 | 1.47 | 81 | 993.4 |
| 20260505185147 | 12 | 337 | 6.4 | 6.4 | 0.00 | 0.00 | 1.42 | 81 | 993.4 |
| 20260505184848 | 12 | 0 | 8.0 | 8.0 | 0.00 | 0.00 | 1.35 | 81 | 993.4 |
| 20260505184547 | 12 | 315 | 1.6 | 3.2 | 0.00 | 0.00 | 1.32 | 80 | 993.6 |
| 20260505184248 | 12 | 337 | 6.4 | 6.4 | 0.00 | 0.00 | 1.27 | 80 | 993.6 |
| 20260505183950 | 12 | 315 | 4.8 | 4.8 | 0.00 | 0.00 | 1.27 | 80 | 993.9 |
| 20260505183647 | 12 | 22 | 6.4 | 6.4 | 0.00 | 0.00 | 1.22 | 80 | 993.9 |
| 20260505183348 | 12 | 0 | 6.4 | 6.4 | 0.00 | 0.00 | 1.22 | 80 | 993.9 |
| 20260505183047 | 12 | 337 | 4.8 | 4.8 | 0.00 | 0.00 | 1.14 | 78 | 993.9 |
| 20260505182750 | 12 | 0 | 4.8 | 4.8 | 0.00 | 0.00 | 1.14 | 78 | 993.9 |
| 20260505182148 | 12 | 337 | 3.2 | 3.2 | 0.00 | 0.00 | 1.12 | 78 | 994.1 |
| 20260505181848 | 12 | 315 | 4.8 | 4.8 | 0.00 | 0.00 | 1.12 | 78 | 994.1 |
| 20260505181547 | 12 | 315 | 6.4 | 6.4 | 0.00 | 0.00 | 1.07 | 78 | 993.9 |
| 20260505181247 | 12 | 315 | 9.7 | 9.7 | 0.00 | 0.00 | 0.99 | 78 | 993.9 |
| 20260505180948 | 12 | 315 | 4.8 | 4.8 | 0.00 | 0.00 | 0.97 | 78 | 993.9 |
| 20260505180347 | 12 | 337 | 8.0 | 8.0 | 0.00 | 0.00 | 0.86 | 78 | 993.9 |
| 20260505180047 | 12 | 337 | 4.8 | 4.8 | 0.00 | 0.00 | 0.81 | 77 | 993.9 |
| 20260505175748 | 12 | 315 | 3.2 | 3.2 | 0.00 | 0.00 | 0.81 | 77 | 993.9 |
| 20260505175447 | 12 | 135 | 4.8 | 6.4 | 0.00 | 0.00 | 0.74 | 78 | 993.9 |
| 20260505175148 | 13 | 180 | 17.7 | 17.7 | 0.00 | 0.00 | 0.61 | 79 | 993.9 |
| 20260505174548 | 13 | 202 | 14.5 | 16.1 | 0.00 | 0.00 | 0.20 | 78 | 993.9 |
| 20260505174248 | 14 | 157 | 8.0 | 8.0 | 0.00 | 0.00 | 0.05 | 77 | 993.4 |
| 20260505173948 | 15 | 180 | 12.9 | 12.9 | 0.00 | 0.00 | 0.00 | 76 | 993.4 |
| 20260505173647 | 15 | 337 | 1.6 | 1.6 | 0.00 | 0.00 | 0.00 | 73 | 993.4 |
| 20260505173048 | 15 | 0 | 6.4 | 6.4 | 0.00 | 0.00 | 0.00 | 74 | 992.4 |
| 20260505172747 | 15 | 22 | 4.8 | 6.4 | 0.00 | 0.00 | 0.00 | 74 | 992.1 |
| 20260505172447 | 15 | 337 | 12.9 | 12.9 | 0.00 | 0.00 | 0.00 | 73 | 991.9 |
| 20260505172147 | 15 | 67 | 12.9 | 12.9 | 0.00 | 0.00 | 0.00 | 73 | 991.9 |
| 20260505171847 | 15 | 337 | 3.2 | 3.2 | 0.00 | 0.00 | 0.00 | 73 | 991.9 |
| 20260505171547 | 15 | 22 | 6.4 | 6.4 | 0.00 | 0.00 | 0.00 | 72 | 991.9 |
| 20260505171250 | 16 | 0 | 19.3 | 20.9 | 0.00 | 0.00 | 0.00 | 72 | 991.9 |
| 20260505170947 | 16 | 0 | 6.4 | 6.4 | 0.00 | 0.00 | 0.00 | 72 | 991.9 |
| 20260505170647 | 16 | 0 | 20.9 | 22.5 | 0.00 | 0.00 | 0.00 | 71 | 991.9 |
| 20260505170347 | 16 | 22 | 8.0 | 8.0 | 0.00 | 0.00 | 0.00 | 70 | 991.9 |
| 20260505170048 | 16 | 337 | 3.2 | 3.2 | 0.00 | 0.00 | 0.00 | 70 | 991.9 |
| 20260505165148 | 16 | 67 | 4.8 | 4.8 | 0.00 | 0.00 | 0.00 | 70 | 991.9 |
| 20260505164847 | 16 | 337 | 16.1 | 16.1 | 0.00 | 0.00 | 0.00 | 70 | 991.9 |
| 20260505164246 | 16 | 0 | 6.4 | 6.4 | 0.00 | 0.00 | 0.00 | 69 | 991.9 |
| 20260505163947 | 16 | 45 | 3.2 | 3.2 | 0.00 | 0.00 | 0.00 | 68 | 991.9 |
| 20260505163647 | 16 | 22 | 6.4 | 6.4 | 0.00 | 0.00 | 0.00 | 69 | 991.9 |
| 20260505163348 | 17 | 45 | 4.8 | 4.8 | 0.00 | 0.00 | 0.00 | 68 | 992.1 |
| 20260505163048 | 17 | 22 | 1.6 | 1.6 | 0.00 | 0.00 | 0.00 | 68 | 992.1 |
| 20260505162447 | 17 | 22 | 1.6 | 1.6 | 0.00 | 0.00 | 0.00 | 67 | 992.1 |
| 20260505162147 | 17 | 90 | 3.2 | 3.2 | 0.00 | 0.00 | 0.00 | 67 | 992.4 |
| 20260505161848 | 17 | 337 | 4.8 | 4.8 | 0.00 | 0.00 | 0.00 | 67 | 992.4 |
| 20260505161548 | 17 | 337 | 8.0 | 8.0 | 0.00 | 0.00 | 0.00 | 67 | 992.1 |
| 20260505161247 | 17 | 22 | 16.1 | 17.7 | 0.00 | 0.00 | 0.00 | 67 | 992.1 |
| 20260505160950 | 17 | 22 | 4.8 | 6.4 | 0.00 | 0.00 | 0.00 | 66 | 992.4 |
| 20260505160647 | 17 | 67 | 6.4 | 6.4 | 0.00 | 0.00 | 0.00 | 65 | 992.4 |
| 20260505160347 | 17 | 67 | 1.6 | 1.6 | 0.00 | 0.00 | 0.00 | 65 | 992.4 |
| 20260505153347 | 18 | 337 | 3.2 | 3.2 | 0.00 | 0.00 | 0.00 | 63 | 992.6 |
| 20260505153048 | 18 | 90 | 6.4 | 6.4 | 0.00 | 0.00 | 0.00 | 62 | 992.9 |
| 20260505152748 | 18 | 45 | 1.6 | 1.6 | 0.00 | 0.00 | 0.00 | 62 | 992.6 |
| 20260505152447 | 18 | 45 | 8.0 | 8.0 | 0.00 | 0.00 | 0.00 | 63 | 992.6 |
| 20260505152148 | 18 | 90 | 14.5 | 16.1 | 0.00 | 0.00 | 0.00 | 61 | 992.9 |
| 20260505151848 | 18 | 67 | 1.6 | 1.6 | 0.00 | 0.00 | 0.00 | 62 | 992.9 |
| 20260505151548 | 18 | 90 | 11.3 | 11.3 | 0.00 | 0.00 | 0.00 | 62 | 992.9 |
| 20260505151247 | 18 | 45 | 4.8 | 4.8 | 0.00 | 0.00 | 0.00 | 61 | 992.6 |
| 20260505150947 | 18 | 337 | 4.8 | 4.8 | 0.00 | 0.00 | 0.00 | 61 | 992.9 |
| 20260505150648 | 18 | 337 | 6.4 | 6.4 | 0.00 | 0.00 | 0.00 | 61 | 992.9 |
| 20260505150350 | 18 | 337 | 9.7 | 9.7 | 0.00 | 0.00 | 0.00 | 60 | 992.9 |
| 20260505140647 | 20 | 337 | 3.2 | 3.2 | 0.00 | 0.00 | 0.00 | 56 | 993.1 |
| 20260505140348 | 20 | 67 | 17.7 | 17.7 | 0.00 | 0.00 | 0.00 | 55 | 993.1 |
| 20260505124847 | 22 | 90 | 9.7 | 9.7 | 0.00 | 0.00 | 0.00 | 50 | 993.9 |
| 20260505124550 | 23 | 90 | 12.9 | 12.9 | 0.00 | 0.00 | 0.00 | 50 | 993.9 |
| 20260505124247 | 23 | 90 | 9.7 | 9.7 | 0.00 | 0.00 | 0.00 | 49 | 993.9 |
| 20260505123948 | 24 | 90 | 9.7 | 9.7 | 0.00 | 0.00 | 0.00 | 53 | 993.9 |
| 20260505123647 | 23 | 45 | 1.6 | 1.6 | 0.00 | 0.00 | 0.00 | 54 | 993.9 |
| 20260505123347 | 23 | 22 | 11.3 | 11.3 | 0.00 | 0.00 | 0.00 | 54 | 993.9 |
| 20260505123050 | 22 | 0 | 1.6 | 1.6 | 0.00 | 0.00 | 0.00 | 54 | 993.9 |
| 20260505122748 | 22 | 90 | 3.2 | 3.2 | 0.00 | 0.00 | 0.00 | 53 | 993.9 |
| 20260505122448 | 22 | 90 | 12.9 | 12.9 | 0.00 | 0.00 | 0.00 | 52 | 993.9 |
| 20260505122147 | 22 | 90 | 4.8 | 4.8 | 0.00 | 0.00 | 0.00 | 54 | 993.9 |
| 20260505121850 | 21 | 45 | 1.6 | 1.6 | 0.00 | 0.00 | 0.00 | 55 | 993.9 |
| 20260505121547 | 21 | 22 | 1.6 | 1.6 | 0.00 | 0.00 | 0.00 | 54 | 993.9 |
| 20260505121248 | 22 | 0 | 0.0 | 0.0 | 0.00 | 0.00 | 0.00 | 54 | 993.9 |
| 20260505120947 | 22 | 90 | 11.3 | 11.3 | 0.00 | 0.00 | 0.00 | 53 | 994.1 |
| 20260505120648 | 21 | 45 | 0.0 | 0.0 | 0.00 | 0.00 | 0.00 | 52 | 994.1 |
| 20260505120350 | 21 | 67 | 1.6 | 1.6 | 0.00 | 0.00 | 0.00 | 52 | 994.1 |
| 20260505120047 | 21 | 67 | 0.0 | 0.0 | 0.00 | 0.00 | 0.00 | 52 | 994.1 |
| 20260505115747 | 22 | 0 | 8.0 | 8.0 | 0.00 | 0.00 | 0.00 | 51 | 994.4 |
| 20260505115447 | 22 | 337 | 6.4 | 6.4 | 0.00 | 0.00 | 0.00 | 51 | 994.1 |
| 20260505115148 | 22 | 337 | 16.1 | 16.1 | 0.00 | 0.00 | 0.00 | 49 | 994.1 |
| 20260505114847 | 22 | 45 | 3.2 | 3.2 | 0.00 | 0.00 | 0.00 | 50 | 994.1 |
| 20260505114550 | 22 | 22 | 6.4 | 6.4 | 0.00 | 0.00 | 0.00 | 47 | 993.9 |
| 20260505114247 | 22 | 0 | 9.7 | 9.7 | 0.00 | 0.00 | 0.00 | 47 | 994.1 |
| 20260505113947 | 23 | 0 | 8.0 | 8.0 | 0.00 | 0.00 | 0.00 | 48 | 994.1 |
| 20260505113647 | 23 | 270 | 0.0 | 0.0 | 0.00 | 0.00 | 0.00 | 46 | 994.1 |
| 20260505113348 | 22 | 315 | 3.2 | 3.2 | 0.00 | 0.00 | 0.00 | 45 | 994.4 |
| 20260505113047 | 22 | 22 | 1.6 | 1.6 | 0.00 | 0.00 | 0.00 | 45 | 994.4 |